Location: Ermatingen
(47.6706°N, 9.0857°E)
Time: 15:08:25
(UTC+00:00)

NOSS 3-2 (C) - Pass Details

Date: 18 September 2020
Orbit: 795 x 1418 km, 63.4° (Epoch: 02 October)

Event Time Altitude Azimuth Distance (km) Brightness Sun altitude
Rises 18:43:37 0° 318° (NW) 3,864 7.7 -13.2°
Reaches altitude 10° 18:46:14 10° 324° (NW) 2,994 6.9 -13.6°
Maximum altitude 18:53:18 50° 39° (NE) 1,534 4.4 -14.7°
Enters shadow 18:58:45 21° 106° (ESE) 2,600 5.1 -15.6°
